Location: Oregon Star Party
(44.2935°N, 120.1332°W)
Time: 11:34:13
(UTC-07:00)

Amateur Radio Satellites - All Passes

Search period start: 30 September 2016 11:04
Search period end: 01 October 2016 11:04
Location: Oregon Star Party, 44.2935°N, 120.1332°W

Satellite Date Start Highest point End Downlink Frequencies (MHz)
Time Altitude Azimuth
AIST 2 30 Sep 11:12:57 11:16:39 29° 45° (NE) 11:20:21 435.215
BUGSAT 1 30 Sep 11:15:04 11:17:31 16° 63° (ENE) 11:19:57 437.445
DUCHIFAT 1 30 Sep 11:22:45 11:26:42 43° 71° (ENE) 11:30:40 145.980
ANTELSAT 30 Sep 11:25:36 11:28:54 22° 266° (W) 11:32:14 437.575/2403.000
JAS-2 30 Sep 11:27:32 11:34:00 53° 67° (ENE) 11:41:14 435.910
QB50P1 30 Sep 11:27:55 11:32:01 56° 73° (ENE) 11:36:09 145.935-145.965
DELFI C3 30 Sep 11:32:21 11:36:00 34° 290° (WNW) 11:39:37 145.870
FUNcube-1 30 Sep 11:37:24 11:40:10 17° 296° (WNW) 11:42:59 145.935
POPSAT HIP 1 30 Sep 11:41:39 11:45:50 79° 76° (ENE) 11:50:03 437.405
TIGRISAT 30 Sep 11:46:27 11:48:48 14° 269° (W) 11:51:09 435.000
CUBEBUG 1 30 Sep 11:50:10 11:53:05 17° 92° (E) 11:55:58 437.445
VELOX 1 30 Sep 11:53:52 11:56:21 15° 91° (E) 11:58:49 145.980
NANOSAT C BR1 30 Sep 11:55:56 12:00:07 75° 257° (WSW) 12:04:19 145.865
ESTCUBE 1 30 Sep 12:05:35 12:09:52 40° 98° (E) 12:14:07 437.505/2401.250
PCSat 30 Sep 12:09:38 12:14:23 30° 46° (NE) 12:19:06 145.827
50 SAT 30 Sep 12:10:31 12:13:09 19° 93° (E) 12:15:47 437.505
Oscar 19 30 Sep 12:10:35 12:13:55 17° 59° (ENE) 12:17:15 437.125/150
HUMSAT D 30 Sep 12:15:29 12:19:01 26° 293° (WNW) 12:22:36 437.325/437.525
SPROUT 30 Sep 12:17:39 12:20:04 15° 91° (E) 12:22:27 437.525
QB50P2 30 Sep 12:22:41 12:26:31 34° 263° (W) 12:30:22 145.880/145.840
POLYITAN 1 30 Sep 12:24:53 12:28:41 33° 263° (W) 12:32:31 437.675
UKube-1 30 Sep 12:37:08 12:40:20 20° 94° (E) 12:43:29 .
PHONESAT 2.4 30 Sep 12:38:27 12:41:12 37° 185° (S) 12:43:57 2401.200-2431.200
AISAT 30 Sep 12:45:28 12:49:47 53° 100° (E) 12:54:04 437.250
YUBILEINY 30 Sep 12:46:36 12:53:39 26° 64° (ENE) 13:00:38 435.215
BUGSAT 1 30 Sep 12:48:32 12:52:31 49° 260° (W) 12:56:28 437.445
AIST 2 30 Sep 12:51:21 12:55:10 34° 244° (WSW) 12:58:58 435.215
Cosmos 2491 30 Sep 12:53:21 12:54:28 10° 69° (ENE) 12:55:35 435.465 / 435.565
DUCHIFAT 1 30 Sep 12:59:49 13:02:36 17° 268° (W) 13:05:24 145.980
QB50P1 30 Sep 13:06:05 13:08:09 13° 270° (W) 13:10:14 145.935-145.965
M-CUBED/EXP-1 PRIME 30 Sep 13:07:08 13:10:07 32° 104° (ESE) 13:13:06 437.505
DX 1 30 Sep 13:10:40 13:14:58 59° 101° (E) 13:19:15 434.975-435.025
JAS-2 30 Sep 13:13:27 13:19:19 32° 268° (W) 13:25:50 435.910
CUBEBUG 1 30 Sep 13:25:28 13:29:37 45° 289° (WNW) 13:33:43 437.445
TISAT 1 30 Sep 13:27:09 13:29:47 16° 92° (E) 13:32:25 437.305
VELOX 1 30 Sep 13:28:51 13:33:10 56° 288° (WNW) 13:37:27 145.980
Gurwin Techsat 1B 30 Sep 13:29:55 13:34:51 41° 68° (ENE) 13:39:50 435.225
SO-50 30 Sep 13:37:09 13:38:40 11° 107° (ESE) 13:40:10 436.795
ESTCUBE 1 30 Sep 13:42:54 13:46:26 23° 295° (WNW) 13:49:57 437.505/2401.250
50 SAT 30 Sep 13:43:27 13:46:42 30° 290° (WNW) 13:49:56 437.505
Cosmos 2504 30 Sep 13:43:56 13:49:27 21° 64° (ENE) 13:55:09 435.465 / 435.565
Oscar 19 30 Sep 13:47:29 13:52:40 71° 257° (WSW) 13:57:53 437.125/150
SPROUT 30 Sep 13:52:10 13:56:19 53° 287° (WNW) 14:00:27 437.525
PCSat 30 Sep 13:52:47 13:58:01 50° 246° (WSW) 14:03:12 145.827
AO-7 30 Sep 13:54:58 14:01:24 26° 51° (NE) 14:07:50 29.400- 29.500
AUBIESAT-1 30 Sep 14:01:19 14:04:34 56° 291° (WNW) 14:07:50 437.475
UKube-1 30 Sep 14:12:28 14:16:31 40° 290° (WNW) 14:20:31 .
PHONESAT 2.4 30 Sep 14:14:44 14:16:53 18° 201° (SSW) 14:19:02 2401.200-2431.200
AISAT 30 Sep 14:23:02 14:25:50 17° 298° (WNW) 14:28:39 437.250
Cosmos 2491 30 Sep 14:40:41 14:49:13 58° 91° (E) 14:57:49 435.465 / 435.565
M-CUBED/EXP-1 PRIME 30 Sep 14:42:29 14:44:27 15° 300° (WNW) 14:46:24 437.505
YUBILEINY 30 Sep 14:42:40 14:51:21 74° 266° (W) 14:59:58 435.215
ITAMSAT 1 30 Sep 14:47:14 14:52:18 59° 71° (ENE) 14:57:25 435.822/435.867
DX 1 30 Sep 14:48:09 14:50:42 15° 299° (WNW) 14:53:14 434.975-435.025
TISAT 1 30 Sep 15:01:40 15:05:40 46° 289° (WNW) 15:09:39 437.305
O/OREOS (USA 219) 30 Sep 15:07:54 15:09:39 12° 46° (NE) 15:11:25 437.305
Gurwin Techsat 1B 30 Sep 15:10:26 15:14:55 28° 265° (W) 15:19:27 435.225
ITUPSAT 1 30 Sep 15:11:29 15:16:02 40° 98° (E) 15:20:33 437.325
SO-50 30 Sep 15:13:34 15:18:24 86° 125° (SE) 15:23:12 436.795
SWISSCUBE 30 Sep 15:22:45 15:27:31 59° 101° (E) 15:32:15 437.505
BEESAT 30 Sep 15:35:21 15:40:10 71° 102° (ESE) 15:44:56 436.000
Cosmos 2504 30 Sep 15:36:09 15:43:38 80° 264° (W) 15:51:38 435.465 / 435.565
AO-7 30 Sep 15:44:57 15:53:18 84° 253° (WSW) 16:01:39 29.400- 29.500
AIST 1 30 Sep 16:06:54 16:11:08 55° 79° (ENE) 16:15:18
ITAMSAT 1 30 Sep 16:28:37 16:32:10 19° 269° (W) 16:35:45 435.822/435.867
MOZHAYETS 4 30 Sep 16:34:29 16:39:04 54° 100° (E) 16:43:36
KKS-1 30 Sep 16:37:40 16:41:44 34° 98° (E) 16:45:46 437.445
Cosmos 2491 30 Sep 16:38:42 16:46:30 34° 292° (WNW) 16:54:23 435.465 / 435.565
BRITE-PL 30 Sep 16:39:54 16:44:33 27° 65° (ENE) 16:49:05 437.365/2234.400
NOAA 18 30 Sep 16:41:41 16:42:06 10° 52° (NE) 16:42:31 137.9125
YUBILEINY 30 Sep 16:42:16 16:46:30 15° 287° (WNW) 16:50:45 435.215
NOAA 15 30 Sep 16:44:56 16:47:57 16° 58° (ENE) 16:51:00 137.62
O/OREOS (USA 219) 30 Sep 16:45:14 16:49:53 80° 68° (ENE) 16:54:27 437.305
ITUPSAT 1 30 Sep 16:49:45 16:53:39 25° 296° (WNW) 16:57:32 437.325
SO-50 30 Sep 16:56:05 16:59:30 19° 324° (NW) 17:02:53 436.795
HORYU 2 30 Sep 16:56:59 17:01:16 53° 72° (ENE) 17:05:35 437.375
SWISSCUBE 30 Sep 17:01:38 17:04:51 18° 299° (WNW) 17:08:03 437.505
STARS 30 Sep 17:02:49 17:06:43 31° 96° (E) 17:10:35 437.465
CUTE-I 30 Sep 17:10:27 17:14:18 21° 61° (ENE) 17:18:10 437.470
Cubesat XI-IV 30 Sep 17:11:18 17:15:10 21° 61° (ENE) 17:19:03 437.490
BEESAT 30 Sep 17:14:37 17:17:22 15° 300° (WNW) 17:20:08 436.000
HO-68 30 Sep 17:31:37 17:32:28 10° 43° (NE) 17:33:18 435.675
Cosmos 2504 30 Sep 17:32:07 17:35:50 15° 283° (WNW) 17:39:41 435.465 / 435.565
RS-15 30 Sep 17:38:14 17:42:50 13° 92° (E) 17:47:28 29.354- 29.394
AO-7 30 Sep 17:42:01 17:47:12 18° 271° (W) 17:52:27 29.400- 29.500
LilacSat-2 30 Sep 17:45:02 17:48:18 29° 70° (ENE) 17:51:36 437.200
AIST 1 30 Sep 17:46:10 17:48:13 13° 276° (W) 17:50:14
GOMX 1 30 Sep 17:50:47 17:55:52 49° 72° (ENE) 18:00:43 467.674
DOVE 4 30 Sep 17:57:29 18:01:25 25° 67° (ENE) 18:05:12 437.250
CUBESAT XI-V 30 Sep 18:02:41 18:07:21 60° 100° (E) 18:11:56 437.345
CUSAT 1 30 Sep 18:03:09 18:08:36 27° 82° (E) 18:14:44 437.405
MOZHAYETS 4 30 Sep 18:12:39 18:15:49 18° 297° (WNW) 18:18:59
KKS-1 30 Sep 18:14:33 18:18:09 25° 294° (WNW) 18:21:43 437.445
NOAA 18 30 Sep 18:16:19 18:21:41 61° 71° (ENE) 18:27:04 137.9125
BRITE-PL 30 Sep 18:17:15 18:22:44 49° 262° (W) 18:28:06 437.365/2234.400
NOAA 15 30 Sep 18:21:43 18:27:02 84° 256° (WSW) 18:32:24 137.62
DANDE 30 Sep 18:25:10 18:27:54 13° 74° (ENE) 18:30:52 436.750
O/OREOS (USA 219) 30 Sep 18:27:18 18:28:34 11° 264° (W) 18:29:49 437.305
HORYU 2 30 Sep 18:35:31 18:38:09 16° 269° (W) 18:40:48 437.375
Cosmos 2499 30 Sep 18:37:31 18:43:37 25° 66° (ENE) 18:50:01 435.465 / 435.565
STARS 30 Sep 18:39:18 18:42:58 27° 294° (WNW) 18:46:38 437.465
CINEMA 3 30 Sep 18:47:02 18:50:10 20° 66° (ENE) 18:53:15 145.822/145.860
CUTE-I 30 Sep 18:48:40 18:53:54 60° 259° (W) 18:59:10 437.470
Cubesat XI-IV 30 Sep 18:49:34 18:54:48 59° 259° (W) 19:00:05 437.490
ISS 30 Sep 19:04:48 19:07:19 21° 136° (SE) 19:09:51 145.825
GONETS M04 30 Sep 19:05:23 19:13:45 45° 72° (ENE) 19:22:00
COMPASS 1 30 Sep 19:07:37 19:08:57 11° 60° (ENE) 19:10:16 437.405
HO-68 30 Sep 19:11:42 19:18:27 47° 64° (ENE) 19:25:12 435.675
AO-85 30 Sep 19:17:58 19:19:37 11° 107° (ESE) 19:21:14 145.980
LilacSat-2 30 Sep 19:19:45 19:22:37 21° 266° (W) 19:25:31 437.200
GOMX 1 30 Sep 19:29:59 19:34:07 23° 267° (W) 19:38:08 467.674
CUBEBUG 2 30 Sep 19:33:25 19:36:00 16° 64° (ENE) 19:38:36 437.445
DOVE 4 30 Sep 19:34:20 19:38:57 39° 262° (W) 19:43:20 437.250
SEEDS 30 Sep 19:39:26 19:43:14 33° 69° (ENE) 19:47:03 437.485
RS-15 30 Sep 19:41:08 19:52:25 62° 114° (ESE) 20:04:18 29.354- 29.394
CUBESAT XI-V 30 Sep 19:41:15 19:44:14 17° 298° (WNW) 19:47:12 437.345
CUSAT 1 30 Sep 19:43:13 19:49:51 66° 284° (WNW) 19:57:43 437.405
CUTE 1.7 + AOD 2 30 Sep 19:43:40 19:47:46 53° 73° (ENE) 19:51:57 437.475
UWE-3 30 Sep 19:45:01 19:47:16 14° 63° (ENE) 19:49:31 435.000/436.395/437.385
CANX-2 30 Sep 19:45:30 19:49:41 64° 74° (ENE) 19:53:56 2200.000
AAUSAT CUBESAT 2 30 Sep 19:52:56 19:56:23 26° 68° (ENE) 19:59:52 437.432
Oscar 11 30 Sep 19:58:52 20:01:01 14° 61° (ENE) 20:03:09 145.826/435.025
NOAA 18 30 Sep 19:58:56 20:02:46 19° 268° (W) 20:06:37 137.9125
DANDE 30 Sep 20:03:25 20:08:59 81° 98° (E) 20:16:19 436.750
NOAA 15 30 Sep 20:06:17 20:07:36 11° 273° (W) 20:08:54 137.62
ZACube-1 30 Sep 20:06:42 20:09:11 16° 63° (ENE) 20:11:40 437.345
CINEMA 3 30 Sep 20:22:54 20:27:04 41° 261° (W) 20:31:08 145.822/145.860
STRAND 1 30 Sep 20:22:56 20:28:07 72° 103° (ESE) 20:33:15 437.568
Cosmos 2499 30 Sep 20:29:47 20:37:21 71° 266° (W) 20:45:31 435.465 / 435.565
COMPASS 1 30 Sep 20:39:41 20:43:52 78° 259° (W) 20:48:06 437.405
ISS 30 Sep 20:40:21 20:43:34 57° 333° (NNW) 20:46:48 145.825
DELFI C3 30 Sep 20:45:59 20:48:25 16° 64° (ENE) 20:50:52 145.870
AO-85 30 Sep 20:54:14 20:59:26 81° 122° (ESE) 21:04:17 145.980
FUNcube-1 30 Sep 20:57:06 21:01:03 47° 72° (ENE) 21:05:03 145.935
HO-68 30 Sep 20:59:44 21:06:15 37° 263° (W) 21:12:50 435.675
GONETS M04 30 Sep 21:02:24 21:10:33 44° 273° (W) 21:18:37
CUBEBUG 2 30 Sep 21:08:14 21:12:17 48° 261° (W) 21:16:19 437.445
PRISM 30 Sep 21:12:38 21:15:51 22° 94° (E) 21:19:03 437.425
SEEDS 30 Sep 21:15:38 21:18:59 23° 267° (W) 21:22:22 437.485
UWE-3 30 Sep 21:19:14 21:23:18 56° 260° (W) 21:27:23 435.000/436.395/437.385
CUTE 1.7 + AOD 2 30 Sep 21:21:32 21:23:56 15° 270° (W) 21:26:22 437.475
CANX-2 30 Sep 21:24:15 21:25:59 12° 271° (W) 21:27:43 2200.000
AAUSAT CUBESAT 2 30 Sep 21:28:07 21:31:45 29° 264° (W) 21:35:28 437.432
CUSAT 1 30 Sep 21:29:33 21:33:37 15° 307° (NW) 21:37:58 437.405
Oscar 11 30 Sep 21:32:19 21:36:35 67° 258° (WSW) 21:40:56 145.826/435.025
HUMSAT D 30 Sep 21:32:42 21:36:04 25° 67° (ENE) 21:39:29 437.325/437.525
ZACube-1 30 Sep 21:41:03 21:45:04 50° 260° (W) 21:49:08 437.345
DANDE 30 Sep 21:48:33 21:53:00 20° 303° (WNW) 21:58:11 436.750
RS-15 30 Sep 21:53:59 22:05:23 51° 321° (NW) 22:17:18 29.354- 29.394
STRAND 1 30 Sep 22:03:27 22:06:42 17° 301° (WNW) 22:09:56 437.568
SO-50 30 Sep 22:03:58 22:07:25 20° 38° (NE) 22:10:48 436.795
ISS 30 Sep 22:17:50 22:20:31 23° 353° (N) 22:23:13 145.825
DELFI C3 30 Sep 22:18:59 22:22:52 48° 261° (W) 22:26:47 145.870
Cosmos 2499 30 Sep 22:26:07 22:29:09 13° 284° (WNW) 22:32:17 435.465 / 435.565
FUNcube-1 30 Sep 22:35:09 22:37:35 15° 269° (W) 22:40:03 145.935
AO-85 30 Sep 22:36:43 22:40:24 20° 321° (NW) 22:43:55 145.980
UNISAT 6 30 Sep 22:39:06 22:42:57 28° 96° (E) 22:46:51 437.425
PRISM 30 Sep 22:47:29 22:51:14 33° 291° (WNW) 22:54:55 437.425
CUBEBUG 1 30 Sep 22:47:41 22:50:48 19° 64° (ENE) 22:53:57 437.445
50 SAT 30 Sep 22:50:03 22:51:22 12° 62° (ENE) 22:52:40 437.505
VELOX 1 30 Sep 22:52:40 22:55:36 18° 63° (ENE) 22:58:32 145.980
ESTCUBE 1 30 Sep 23:06:21 23:10:40 44° 71° (ENE) 23:15:00 437.505/2401.250
HUMSAT D 30 Sep 23:08:03 23:11:36 28° 264° (W) 23:15:13 437.325/437.525
SPROUT 30 Sep 23:13:05 23:15:29 15° 62° (ENE) 23:17:54 437.525
ANTELSAT 30 Sep 23:13:57 23:18:22 65° 101° (E) 23:22:53 437.575/2403.000
AUBIESAT-1 30 Sep 23:15:11 23:17:59 19° 62° (ENE) 23:20:39 437.475
POPSAT HIP 1 30 Sep 23:27:01 23:28:20 11° 89° (E) 23:29:40 437.405
UKube-1 30 Sep 23:33:10 23:36:29 22° 65° (ENE) 23:39:49 .
TIGRISAT 30 Sep 23:33:30 23:37:57 84° 286° (WNW) 23:42:29 435.000
NANOSAT C BR1 30 Sep 23:39:53 23:42:22 15° 91° (E) 23:44:52 145.865
SO-50 30 Sep 23:43:48 23:48:22 70° 238° (WSW) 23:52:49 436.795
AISAT 30 Sep 23:43:58 23:48:20 58° 72° (ENE) 23:52:42 437.250
M-CUBED/EXP-1 PRIME 30 Sep 23:54:20 23:58:19 66° 69° (ENE) 00:02:01 437.505
ISS 30 Sep 23:54:51 23:57:42 27° 13° (NNE) 00:00:33 145.825
BEESAT 2 30 Sep 23:58:59 00:01:00 14° 110° (ESE) 00:03:02 435.950
QB50P2 01 Oct 00:05:38 00:09:28 32° 97° (E) 00:13:16 145.880/145.840
DX 1 01 Oct 00:07:21 00:11:40 62° 73° (ENE) 00:15:59 434.975-435.025
POLYITAN 1 01 Oct 00:07:48 00:11:37 32° 97° (E) 00:15:27 437.675
RS-15 01 Oct 00:11:39 00:21:46 29° 353° (N) 00:32:03 29.354- 29.394
UNISAT 6 01 Oct 00:15:46 00:19:37 30° 292° (WNW) 00:23:34 437.425
JAS-2 01 Oct 00:20:04 00:27:32 45° 95° (E) 00:34:33 435.910
TISAT 1 01 Oct 00:20:39 00:23:13 16° 63° (ENE) 00:25:48 437.305
50 SAT 01 Oct 00:20:48 00:24:22 56° 259° (W) 00:28:00 437.505
CUBEBUG 1 01 Oct 00:22:32 00:26:47 46° 261° (W) 00:31:02 437.445
VELOX 1 01 Oct 00:27:18 00:31:40 53° 260° (W) 00:36:01 145.980
BUGSAT 1 01 Oct 00:29:15 00:32:10 19° 93° (E) 00:35:06 437.445
BEESAT 3 01 Oct 00:31:36 00:35:27 61° 121° (ESE) 00:39:21 437.485
DUCHIFAT 1 01 Oct 00:40:26 00:44:36 64° 101° (ESE) 00:48:47 145.980
ESTCUBE 1 01 Oct 00:44:23 00:47:41 20° 268° (W) 00:51:00 437.505/2401.250
QB50P1 01 Oct 00:46:27 00:50:42 86° 108° (ESE) 00:54:55 145.935-145.965
SPROUT 01 Oct 00:46:46 00:50:58 58° 260° (W) 00:55:11 437.525
AUBIESAT-1 01 Oct 00:48:39 00:52:17 35° 256° (WSW) 00:55:42 437.475
Cosmos 2491 01 Oct 00:49:15 00:56:56 32° 66° (ENE) 01:04:32 435.465 / 435.565
ANTELSAT 01 Oct 00:52:08 00:54:37 15° 298° (WNW) 00:57:06 437.575/2403.000
SWISSCUBE 01 Oct 00:57:01 00:58:18 11° 57° (ENE) 00:59:35 437.505
POPSAT HIP 1 01 Oct 01:00:23 01:04:35 68° 286° (WNW) 01:08:47 437.405
UKube-1 01 Oct 01:08:16 01:12:18 38° 262° (W) 01:16:22 .
BEESAT 01 Oct 01:08:39 01:10:46 13° 58° (ENE) 01:12:54 436.000
TIGRISAT 01 Oct 01:13:35 01:13:56 10° 301° (WNW) 01:14:16 435.000
NANOSAT C BR1 01 Oct 01:14:19 01:18:23 50° 288° (WNW) 01:22:27 145.865
AISAT 01 Oct 01:22:40 01:25:10 15° 269° (W) 01:27:39 437.250
ISS 01 Oct 01:31:12 01:34:30 86° 210° (SSW) 01:37:46 145.825
M-CUBED/EXP-1 PRIME 01 Oct 01:32:17 01:33:06 10° 263° (W) 01:33:54 437.505
BEESAT 2 01 Oct 01:34:25 01:38:20 60° 307° (NW) 01:42:17 435.950
QB50P2 01 Oct 01:41:43 01:45:07 24° 294° (WNW) 01:48:31 145.880/145.840
POLYITAN 1 01 Oct 01:43:53 01:47:17 24° 293° (WNW) 01:50:40 437.675
Gurwin Techsat 1B 01 Oct 01:45:55 01:48:37 14° 89° (E) 01:51:19 435.225
DX 1 01 Oct 01:46:07 01:48:14 13° 270° (W) 01:50:23 434.975-435.025
YUBILEINY 01 Oct 01:50:39 01:57:38 28° 81° (E) 02:04:34 435.215
TISAT 1 01 Oct 01:54:24 01:58:29 51° 260° (W) 02:02:34 437.305
Oscar 19 01 Oct 01:57:39 02:02:23 36° 97° (E) 02:07:04 437.125/150
BUGSAT 1 01 Oct 02:03:58 02:07:40 36° 290° (WNW) 02:11:22 437.445
JAS-2 01 Oct 02:05:07 02:12:27 44° 295° (WNW) 02:19:27 435.910
BEESAT 3 01 Oct 02:10:45 02:13:28 18° 320° (NW) 02:16:13 437.485
DUCHIFAT 1 01 Oct 02:17:46 02:19:47 13° 299° (WNW) 02:21:49 145.980
ITUPSAT 1 01 Oct 02:19:33 02:24:12 56° 72° (ENE) 02:28:54 437.325
QB50P1 01 Oct 02:25:07 02:25:48 10° 301° (WNW) 02:26:29 145.935-145.965
RS-15 01 Oct 02:27:49 02:39:02 37° 28° (NNE) 02:50:10 29.354- 29.394
Cosmos 2504 01 Oct 02:28:11 02:31:36 14° 77° (ENE) 02:34:59 435.465 / 435.565
SWISSCUBE 01 Oct 02:30:31 02:35:17 81° 74° (ENE) 02:40:05 437.505
BEESAT 01 Oct 02:43:06 02:47:52 85° 255° (WSW) 02:52:40 436.000
Cosmos 2491 01 Oct 02:45:41 02:54:23 63° 268° (W) 03:03:00 435.465 / 435.565
AIST 2 01 Oct 02:50:02 02:53:40 31° 116° (ESE) 02:57:20 435.215
PCSat 01 Oct 02:54:48 02:58:06 17° 105° (ESE) 03:01:26 145.827
ITAMSAT 1 01 Oct 02:59:24 03:02:58 18° 91° (E) 03:06:32 435.822/435.867
ISS 01 Oct 03:09:09 03:10:31 12° 228° (SW) 03:11:51 145.825
BEESAT 2 01 Oct 03:15:56 03:16:59 11° 328° (NNW) 03:18:03 435.950
Gurwin Techsat 1B 01 Oct 03:23:50 03:29:11 80° 286° (WNW) 03:34:30 435.225
KKS-1 01 Oct 03:37:02 03:41:10 39° 69° (ENE) 03:45:18 437.445
Oscar 19 01 Oct 03:37:07 03:41:36 31° 295° (WNW) 03:46:04 437.125/150
MOZHAYETS 4 01 Oct 03:37:37 03:42:07 60° 73° (ENE) 03:46:40
YUBILEINY 01 Oct 03:44:56 03:53:40 69° 281° (W) 04:02:25 435.215
AO-7 01 Oct 03:45:20 03:52:22 30° 95° (E) 03:59:21 29.400- 29.500
AO-85 01 Oct 03:45:31 03:48:13 16° 35° (NE) 03:50:49 145.980
JAS-2 01 Oct 03:53:52 03:55:28 11° 316° (NW) 03:57:04 435.910
ITUPSAT 1 01 Oct 03:59:17 04:02:23 17° 269° (W) 04:05:31 437.325
STARS 01 Oct 04:00:49 04:04:45 34° 69° (ENE) 04:08:43 437.465
SWISSCUBE 01 Oct 04:12:02 04:13:40 12° 272° (W) 04:15:18 437.505
Cosmos 2504 01 Oct 04:16:27 04:23:47 84° 97° (E) 04:30:59 435.465 / 435.565
AIST 2 01 Oct 04:28:28 04:32:08 30° 314° (NW) 04:35:49 435.215
CUSAT 1 01 Oct 04:35:26 04:41:18 24° 59° (ENE) 04:46:28 437.405
PCSat 01 Oct 04:35:26 04:40:50 75° 302° (WNW) 04:46:18 145.827
ITAMSAT 1 01 Oct 04:37:41 04:42:51 61° 289° (WNW) 04:47:59 435.822/435.867
AIST 1 01 Oct 04:37:55 04:41:44 30° 90° (E) 04:45:33
RS-15 01 Oct 04:41:00 04:53:29 87° 56° (ENE) 05:05:41 29.354- 29.394
Cosmos 2491 01 Oct 04:46:29 04:49:16 12° 289° (WNW) 04:52:03 435.465 / 435.565
DANDE 01 Oct 04:58:19 05:04:03 20° 57° (ENE) 05:09:32 436.750
Gurwin Techsat 1B 01 Oct 05:06:05 05:08:16 13° 304° (NW) 05:10:28 435.225
CUBESAT XI-V 01 Oct 05:07:06 05:11:47 69° 74° (ENE) 05:16:29 437.345
KKS-1 01 Oct 05:14:27 05:17:52 21° 266° (W) 05:21:17 437.445
MOZHAYETS 4 01 Oct 05:17:07 05:19:41 15° 270° (W) 05:22:16
AO-85 01 Oct 05:25:04 05:29:14 78° 238° (WSW) 05:33:09 145.980
AO-7 01 Oct 05:37:29 05:45:41 66° 294° (WNW) 05:53:51 29.400- 29.500
STARS 01 Oct 05:37:37 05:41:10 24° 265° (W) 05:44:44 437.465
YUBILEINY 01 Oct 05:47:37 05:52:22 15° 305° (NW) 05:57:09 435.215
STRAND 1 01 Oct 06:03:38 06:06:53 17° 60° (ENE) 06:10:09 437.568
Cosmos 2504 01 Oct 06:13:16 06:18:07 19° 298° (WNW) 06:22:57 435.465 / 435.565
AIST 1 01 Oct 06:15:42 06:19:20 25° 288° (WNW) 06:22:58
CUSAT 1 01 Oct 06:16:42 06:24:20 77° 264° (W) 06:30:30 437.405
BRITE-PL 01 Oct 06:21:08 06:25:45 50° 98° (E) 06:29:59 437.365/2234.400
PCSat 01 Oct 06:21:46 06:25:11 17° 324° (NW) 06:28:38 145.827
HORYU 2 01 Oct 06:22:25 06:26:54 86° 105° (ESE) 06:31:22 437.375
NOAA 15 01 Oct 06:35:36 06:40:20 32° 96° (E) 06:45:02 137.62
NOAA 18 01 Oct 06:37:22 06:41:35 22° 93° (E) 06:45:46 137.9125
DANDE 01 Oct 06:39:50 06:48:19 76° 78° (ENE) 06:55:57 436.750
CUBESAT XI-V 01 Oct 06:47:20 06:49:38 13° 271° (W) 06:51:58 437.345
LilacSat-2 01 Oct 06:50:26 06:53:59 35° 97° (E) 06:57:33 437.200
RS-15 01 Oct 06:54:48 07:04:31 29° 259° (WSW) 07:14:04 29.354- 29.394
O/OREOS (USA 219) 01 Oct 06:58:48 07:03:20 70° 110° (ESE) 07:07:55 437.305
CUTE-I 01 Oct 07:03:57 07:09:09 48° 99° (E) 07:14:19 437.470
Cubesat XI-IV 01 Oct 07:05:02 07:10:14 49° 99° (E) 07:15:25 437.490
BEESAT 3 01 Oct 07:11:38 07:12:38 11° 32° (NNE) 07:13:39 437.485
Cosmos 2499 01 Oct 07:19:45 07:23:35 15° 78° (ENE) 07:27:24 435.465 / 435.565
GOMX 1 01 Oct 07:29:15 07:33:36 75° 286° (WNW) 07:37:46 467.674
DOVE 4 01 Oct 07:31:22 07:35:24 46° 99° (E) 07:39:23 437.250
AO-7 01 Oct 07:32:00 07:36:56 18° 316° (NW) 07:41:53 29.400- 29.500
CANX-2 01 Oct 07:32:10 07:32:27 10° 87° (E) 07:32:44 2200.000
STRAND 1 01 Oct 07:40:26 07:45:30 70° 258° (WSW) 07:50:38 437.568
BRITE-PL 01 Oct 08:00:33 08:03:47 19° 299° (WNW) 08:06:52 437.365/2234.400
CUSAT 1 01 Oct 08:01:16 08:04:44 14° 285° (WNW) 08:07:57 437.405
HORYU 2 01 Oct 08:01:17 08:02:46 12° 302° (WNW) 08:04:16 437.375
PRISM 01 Oct 08:03:38 08:06:45 21° 65° (ENE) 08:09:54 437.425
GONETS M04 01 Oct 08:08:13 08:16:33 48° 88° (E) 08:24:52
BEESAT 2 01 Oct 08:13:48 08:16:39 18° 40° (NE) 08:19:30 435.950
NOAA 15 01 Oct 08:15:19 08:20:06 36° 294° (WNW) 08:24:52 137.62
CINEMA 3 01 Oct 08:15:24 08:19:17 36° 97° (E) 08:23:16 145.822/145.860
NOAA 18 01 Oct 08:17:13 08:22:32 54° 291° (WNW) 08:27:51 137.9125
COMPASS 1 01 Oct 08:22:08 08:24:38 15° 91° (E) 08:27:06 437.405
DANDE 01 Oct 08:23:45 08:30:14 26° 278° (W) 08:36:17 436.750
HO-68 01 Oct 08:24:51 08:31:33 41° 98° (E) 08:38:12 435.675
LilacSat-2 01 Oct 08:25:19 08:28:03 19° 294° (WNW) 08:30:47 437.200
O/OREOS (USA 219) 01 Oct 08:40:24 08:43:15 16° 310° (NW) 08:46:09 437.305
CUTE-I 01 Oct 08:44:35 08:48:54 25° 297° (WNW) 08:53:13 437.470
Cubesat XI-IV 01 Oct 08:45:43 08:50:01 25° 297° (WNW) 08:54:18 437.490
BEESAT 3 01 Oct 08:47:11 08:51:08 59° 53° (NE) 08:55:03 437.485
SEEDS 01 Oct 08:56:45 09:00:56 52° 100° (E) 09:05:05 437.485
CUBEBUG 2 01 Oct 08:57:04 09:00:51 29° 96° (E) 09:04:42 437.445
TIGRISAT 01 Oct 09:00:37 09:01:50 11° 59° (ENE) 09:03:02 435.000
CUTE 1.7 + AOD 2 01 Oct 09:02:27 09:06:47 86° 103° (ESE) 09:11:05 437.475
CANX-2 01 Oct 09:04:31 09:08:51 78° 283° (WNW) 09:13:08 2200.000
UWE-3 01 Oct 09:07:06 09:10:43 25° 95° (E) 09:14:23 435.000/436.395/437.385
AAUSAT CUBESAT 2 01 Oct 09:08:12 09:12:07 37° 97° (E) 09:15:59 437.432
Cosmos 2499 01 Oct 09:08:28 09:15:35 88° 276° (W) 09:22:43 435.465 / 435.565
DOVE 4 01 Oct 09:10:07 09:12:46 17° 297° (WNW) 09:15:24 437.250
Oscar 11 01 Oct 09:18:35 09:21:49 20° 92° (E) 09:25:03 145.826/435.025
ZACube-1 01 Oct 09:27:35 09:31:17 26° 95° (E) 09:35:01 437.345
PRISM 01 Oct 09:37:56 09:41:49 37° 262° (W) 09:45:44 437.425
UNISAT 6 01 Oct 09:39:42 09:43:21 29° 68° (ENE) 09:47:03 437.425
BEESAT 2 01 Oct 09:50:51 09:54:50 61° 239° (WSW) 09:58:46 435.950
PHONESAT 2.4 01 Oct 09:51:41 09:53:56 20° 161° (SSE) 09:56:13 2401.200-2431.200
CINEMA 3 01 Oct 09:53:04 09:56:16 21° 294° (WNW) 09:59:30 145.822/145.860
DELFI C3 01 Oct 09:55:29 09:58:23 19° 93° (E) 10:01:14 145.870
COMPASS 1 01 Oct 09:56:22 10:00:28 50° 287° (WNW) 10:04:33 437.405
GONETS M04 01 Oct 10:05:15 10:13:28 41° 289° (WNW) 10:21:46
HO-68 01 Oct 10:12:38 10:19:16 43° 297° (WNW) 10:25:54 435.675
ANTELSAT 01 Oct 10:14:16 10:18:29 67° 74° (ENE) 10:22:43 437.575/2403.000
FUNcube-1 01 Oct 10:18:56 10:23:19 85° 100° (E) 10:27:47 145.935
POPSAT HIP 1 01 Oct 10:21:34 10:23:00 12° 60° (ENE) 10:24:26 437.405
BEESAT 3 01 Oct 10:26:13 10:28:19 14° 250° (WSW) 10:30:24 437.485
SEEDS 01 Oct 10:33:33 10:36:13 16° 297° (WNW) 10:38:52 437.485
TIGRISAT 01 Oct 10:33:39 10:37:54 80° 259° (W) 10:42:10 435.000
CUBEBUG 2 01 Oct 10:33:43 10:37:25 28° 292° (WNW) 10:41:12 437.445
NANOSAT C BR1 01 Oct 10:34:00 10:36:22 15° 62° (ENE) 10:38:45 145.865
JAS-2 01 Oct 10:34:20 10:39:45 25° 56° (ENE) 10:45:33 435.910
CUTE 1.7 + AOD 2 01 Oct 10:40:57 10:41:56 11° 300° (WNW) 10:42:55 437.475
UWE-3 01 Oct 10:43:18 10:47:12 33° 290° (WNW) 10:51:10 435.000/436.395/437.385
AAUSAT CUBESAT 2 01 Oct 10:44:11 10:47:22 21° 294° (WNW) 10:50:31 437.432
HUMSAT D 01 Oct 10:49:01 10:53:02 38° 98° (E) 10:57:03 437.325/437.525
Oscar 11 01 Oct 10:54:01 10:58:07 40° 290° (WNW) 11:02:11 145.826/435.025
